Weather History for KSTP - August, 2012

Change the Weather History Date:

Monday, August 6, 2012

  Actual Average (KMSP) Record (KMSP)
Temperature  
Mean Temperature 70 °F 73 °F  
Max Temperature 84 °F 82 °F 99 °F (2001)
Min Temperature 57 °F 63 °F 48 °F (1977)
Degree Days  
Heating Degree Days 0 0  
Month to date heating degree days 0  
Since 1 June heating degree days 49  
Since 1 July heating degree days 5  
Cooling Degree Days 6 8  
Month to date cooling degree days 48  
Year to date cooling degree days 524  
Since 1 June cooling degree days 482  
Growing Degree Days 20 (Base 50)    
Moisture  
Dew Point 60 °F    
Average Humidity 67    
Maximum Humidity 90    
Minimum Humidity 44    
Precipitation  
Precipitation 0.00 in 0.15 in 1.67 in (1995)
Month to date precipitation 0.90  
Year to date precipitation 18.77  
Snow  
Snow 0.00 in 0.00 in 0.00 in ()
Month to date snowfall 0.0  
Since 1 June snowfall 0.0  
Since 1 July snowfall 0.0  
Snow Depth -    
Sea Level Pressure  
Sea Level Pressure 30.03 in    
Wind  
Wind Speed 4 mph (SSE)    
Max Wind Speed 10 mph    
Max Gust Speed 17 mph    
Visibility 10 miles    
Events      
T = Trace of Precipitation, MM = Missing Value Source: NWS Daily Summary

Daily Weather History Graph

Daily Weather History Graph

Search for Another Location

Airport or City:

Trip Planner

Search our weather history database for the weather conditions in past years. The results will help you decide how hot, cold, wet, or windy it might be!

Date:

Astronomy

Aug. 06, 2012 Rise Set
Actual Time 6:04 AM CDT 8:31 PM CDT
Civil Twilight 5:31 AM CDT 9:04 PM CDT
Nautical Twilight 4:49 AM CDT 9:45 PM CDT
Astronomical Twilight 4:03 AM CDT 10:31 PM CDT
Moon 10:22 PM CDT (8/6) 11:10 AM CDT (8/6)
Length of Visible Light 15h 32m
Length of Day
14h 27m
Waning Gibbous, 78% of the Moon is Illuminated
Aug 6
Waning Gibbous
Aug 9
Last Quarter
Aug 17
New
Aug 24
First Quarter
Aug 31
Full

Hourly Weather History & Observations

Time (CDT) Temp. Heat Index Dew Point Humidity Pressure Visibility Wind Dir Wind Speed Gust Speed Precip Events Conditions
12:53 AM 64.0 °F - 55.9 °F 75% 30.12 in 10.0 mi ESE 3.5 mph - N/A   Clear
1:53 AM 63.0 °F - 55.9 °F 78% 30.11 in 10.0 mi SE 3.5 mph - N/A   Clear
2:53 AM 61.0 °F - 55.0 °F 81% 30.12 in 10.0 mi SE 4.6 mph - N/A   Clear
3:53 AM 61.0 °F - 55.0 °F 81% 30.12 in 10.0 mi SE 3.5 mph - N/A   Clear
4:53 AM 57.9 °F - 54.0 °F 87% 30.12 in 10.0 mi South 3.5 mph - N/A   Clear
5:53 AM 57.0 °F - 54.0 °F 89% 30.11 in 10.0 mi Calm Calm - N/A   Clear
6:53 AM 60.1 °F - 57.0 °F 90% 30.11 in 10.0 mi SSE 5.8 mph - N/A   Clear
7:53 AM 64.0 °F - 57.0 °F 78% 30.11 in 10.0 mi SE 3.5 mph - N/A   Clear
8:53 AM 68.0 °F - 57.0 °F 68% 30.11 in 10.0 mi Calm Calm - N/A   Clear
9:53 AM 73.0 °F - 59.0 °F 61% 30.09 in 10.0 mi Calm Calm - N/A   Clear
10:53 AM 77.0 °F - 57.0 °F 50% 30.08 in 10.0 mi SW 6.9 mph - N/A   Clear
11:53 AM 79.0 °F - 57.9 °F 48% 30.06 in 10.0 mi South 6.9 mph - N/A   Clear
12:53 PM 81.0 °F 81.6 °F 60.1 °F 49% 30.04 in 10.0 mi SSW 9.2 mph - N/A   Clear
1:53 PM 82.9 °F 83.3 °F 61.0 °F 47% 30.01 in 10.0 mi SSE 10.4 mph 17.3 mph N/A   Clear
2:53 PM 84.9 °F 85.0 °F 61.0 °F 44% 29.99 in 10.0 mi SE 8.1 mph - N/A   Clear
3:53 PM 84.9 °F 85.4 °F 62.1 °F 46% 29.97 in 10.0 mi South 8.1 mph - N/A   Clear
4:53 PM 84.0 °F 84.9 °F 63.0 °F 49% 29.96 in 10.0 mi South 10.4 mph - N/A   Clear
5:53 PM 84.0 °F 85.4 °F 64.0 °F 51% 29.95 in 10.0 mi South 9.2 mph - N/A   Clear
6:53 PM 82.9 °F 84.0 °F 63.0 °F 51% 29.95 in 10.0 mi SSW 8.1 mph - N/A   Clear
7:53 PM 80.1 °F 81.9 °F 64.9 °F 60% 29.94 in 10.0 mi South 5.8 mph - N/A   Clear
8:53 PM 75.9 °F - 66.9 °F 74% 29.93 in 10.0 mi SSE 3.5 mph - N/A   Clear
9:53 PM 75.0 °F - 66.9 °F 76% 29.94 in 10.0 mi Calm Calm - N/A   Clear
10:53 PM 73.0 °F - 66.9 °F 81% 29.93 in 10.0 mi Calm Calm - N/A   Clear
11:53 PM 72.0 °F - 68.0 °F 87% 29.91 in 10.0 mi Calm Calm - N/A   Clear